Temperature
16 16 16 16 16 15 15 15 15 15 14 14 14 14 14 14 14 14 13 13 13 13 13 13 13 13 13 13 13 12 12 12 12 12 12 12 12 13 13 13 13 13 13
16 16 16 16 16 15 15 15 15 15 14 14 14 14 14 14 14 13 13 13 13 13 13 13 13 13 12 12 12 12 12 12 12 12 12 12 12 12 12 12 12 12 13
17 16 16 16 16 15 15 15 15 15 14 14 14 14 14 14 14 13 13 13 13 13 13 12 12 12 12 12 12 12 12 12 12 11 11 11 12 12 12 12 12 12 12
17 16 16 16 16 15 15 15 15 15 14 14 14 14 14 14 13 13 13 13 13 13 12 12 12 12 12 12 12 12 12 11 11 11 11 11 11 11 11 11 11 11 12
17 16 16 16 16 15 15 15 15 14 14 14 14 14 14 14 13 13 13 13 13 12 12 12 12 12 12 12 12 11 11 11 11 11 11 11 11 11 11 10 10 11 11
17 16 16 16 16 15 15 15 15 14 14 14 14 14 14 13 13 13 13 13 12 12 12 12 12 12 11 11 11 11 11 11 11 10 10 10 10 10 10 10 10 10 10
17 16 16 16 16 15 15 14 14 14 14 14 14 13 13 13 13 13 13 13 12 12 12 11 11 11 11 11 11 11 11 10 10 10 10 10 10 10 10 10 10 9 9
16 16 16 16 15 15 15 14 14 14 14 14 13 13 13 13 13 13 13 12 12 12 11 11 11 11 11 11 10 10 10 10 10 9 9 9 9 9 9 9 9 9 9
16 16 16 16 15 15 15 15 14 14 14 13 13 13 13 13 13 13 12 12 12 12 11 11 11 10 10 10 10 10 10 10 10 9 9 9 9 9 9 9 9 9 9
17 16 16 16 15 15 15 15 14 14 14 13 13 13 13 13 12 12 12 12 12 11 11 11 10 10 10 10 10 10 10 9 9 9 9 9 9 8 8 8 8 8 8
17 16 16 15 15 15 15 14 14 14 13 13 13 13 12 12 12 12 12 12 11 11 10 10 10 10 10 10 10 9 9 9 9 8 8 8 8 8 8 8 8 8 8
16 16 15 15 15 15 14 14 14 13 13 13 12 12 12 12 12 12 11 11 11 11 10 10 10 10 9 9 9 9 9 9 8 8 8 8 7 7 7 7 7 7 7
16 16 15 15 15 14 14 14 13 13 13 12 12 12 12 12 11 11 11 11 10 10 10 10 9 9 9 9 9 9 8 8 8 8 7 7 7 7 7 7 7 7 7
16 15 15 15 14 14 14 13 13 13 13 12 12 12 12 11 11 11 11 11 10 10 10 9 9 9 9 9 8 8 8 8 7 7 7 7 6 6 6 6 6 6 6
15 15 14 14 14 14 13 13 13 13 13 12 12 12 11 11 11 11 11 10 10 10 9 9 9 9 8 8 8 8 7 7 7 7 6 6 6 6 6 6 5 5 5
14 14 14 14 13 13 13 13 13 12 12 12 12 11 11 11 11 10 10 10 10 9 9 8 8 8 8 7 7 7 7 7 6 6 6 6 5 5 5 5 5 5 5
14 14 13 13 13 13 13 13 12 12 12 12 11 11 11 11 10 10 10 9 9 9 8 8 8 8 7 7 7 6 6 6 6 5 5 5 5 5 5 4 4 4 4
14 13 13 13 13 13 12 12 12 12 12 11 11 11 11 10 10 10 9 9 9 8 8 8 7 7 7 6 6 6 6 5 5 5 5 5 5 4 4 4 4 4 4
13 13 13 13 12 12 12 12 11 11 11 11 11 11 10 10 10 9 9 8 8 8 8 7 7 7 6 6 6 5 5 5 5 5 4 4 4 4 4 4 3 3 3
13 13 13 12 12 12 11 11 11 11 10 10 10 10 10 9 9 9 8 8 8 8 7 7 7 6 6 6 5 5 5 5 4 4 4 4 4 3 3 3 3 3 3
13 12 12 12 12 11 11 10 10 10 10 10 10 9 9 9 9 8 8 8 7 7 7 6 6 6 5 5 5 5 4 4 4 4 4 3 3 3 3 3 3 3 2
12 12 11 11 11 11 10 10 10 9 9 9 9 9 8 8 8 8 7 7 7 6 6 6 6 5 5 5 5 4 4 4 4 3 3 3 3 3 3 2 2 2 2
12 11 11 11 10 10 10 9 9 9 9 8 8 8 8 7 7 7 7 6 6 6 6 5 5 5 5 5 4 4 4 3 3 3 3 3 2 2 2 2 2 2 2
11 10 10 10 9 9 9 9 9 8 8 8 7 7 7 7 7 6 6 6 6 5 5 5 5 5 4 4 4 4 3 3 3 3 2 2 2 2 2 2 2 2 2
9 9 9 9 9 8 8 8 8 8 7 7 7 7 6 6 6 6 6 5 5 5 5 5 4 4 4 4 3 3 3 3 2 2 2 2 2 2 1 1 1 1 1
8 8 8 8 8 8 7 7 7 7 7 6 6 6 6 6 5 5 5 5 5 4 4 4 4 4 3 3 3 3 3 2 2 2 2 2 2 1 1 1 1 1 1
Wind_Speed
5 4 4 4 4 3 3 3 2 2 1 1 1 3 3 3 3 3 3 4 4 3 3 4 3 4 3 4 4 3 3 3 2 3 3 3 4 4 5 6 7 6 6
5 5 5 5 5 5 5 4 3 2 1 0 1 3 3 3 3 3 2 3 3 4 4 4 4 3 3 3 3 4 3 3 2 4 4 3 4 4 3 4 6 7 6
5 5 6 6 6 5 5 4 2 3 2 1 2 3 3 3 3 2 2 2 2 3 3 3 4 4 4 3 4 4 3 4 2 3 4 3 3 4 4 5 5 4 7
6 5 6 6 6 5 5 4 2 2 1 2 3 3 3 3 3 3 4 3 3 2 3 2 3 3 3 4 4 5 5 5 4 3 3 3 3 4 3 3 4 4 5
7 6 5 5 6 5 5 4 3 2 1 2 3 3 3 2 3 4 4 5 4 3 2 2 2 2 3 3 3 4 4 4 4 4 4 4 4 4 4 3 4 5 5
7 6 5 4 5 5 5 4 3 2 1 2 2 3 2 2 4 5 4 4 4 3 3 2 1 1 2 3 5 5 5 4 4 3 4 5 5 4 4 5 4 5 5
7 6 6 6 5 5 5 5 4 3 2 1 1 1 2 2 2 2 3 3 4 4 3 3 3 3 3 2 5 6 6 7 7 5 5 5 5 5 5 6 5 6 7
7 6 6 6 6 5 5 4 4 3 3 3 2 2 2 1 1 1 3 3 4 3 3 2 2 2 4 4 5 5 4 5 6 5 4 6 6 5 5 6 8 8 7
7 7 7 7 7 6 6 5 4 3 3 3 3 3 3 1 2 1 2 2 3 4 3 2 2 2 4 6 5 5 6 6 8 10 11 11 14 15 11 5 6 5 7
8 7 7 7 7 7 6 5 4 4 3 3 3 3 3 3 3 3 2 2 3 3 2 1 1 2 4 5 4 5 6 6 7 8 9 11 11 12 13 7 5 5 6
7 7 7 7 7 6 6 5 4 4 4 4 4 4 4 4 4 5 4 2 2 3 3 2 2 4 5 6 6 5 8 9 7 7 7 7 6 5 5 5 5 5 6
7 7 6 6 6 6 6 5 5 4 4 4 4 4 4 4 5 5 6 5 4 3 3 2 3 6 7 9 8 9 12 11 6 6 6 6 5 5 5 5 7 8 8
7 7 6 6 5 5 6 6 5 4 4 4 4 4 3 3 4 6 6 6 6 4 3 5 7 8 9 8 10 12 10 6 5 6 6 6 5 5 5 5 7 8 10
7 7 6 6 6 6 4 5 4 4 4 4 4 4 4 3 2 3 3 4 5 5 5 6 9 10 8 9 9 8 6 5 5 5 5 5 5 5 5 5 6 6 7
6 6 6 6 6 5 5 5 5 5 5 5 4 3 3 4 4 5 3 3 3 4 4 3 4 5 5 5 5 6 5 4 5 5 5 5 6 6 6 5 5 6 7
5 5 4 4 4 4 5 4 6 6 8 9 7 6 4 5 6 6 6 6 6 6 4 4 5 5 6 6 6 5 5 4 4 5 5 6 6 6 7 6 6 6 7
5 4 4 4 4 4 5 5 4 5 7 8 9 9 9 8 7 7 7 6 7 6 4 5 6 6 6 6 5 5 5 5 4 5 5 6 6 7 7 7 7 7 8
5 5 5 4 4 4 4 4 5 5 5 5 8 11 11 11 10 10 8 5 4 4 5 6 6 6 6 5 5 5 5 5 5 5 6 6 6 7 7 7 7 8 8
4 3 4 4 4 4 4 4 4 5 5 4 3 5 9 10 10 10 8 5 6 6 6 6 6 6 5 5 5 5 5 5 6 6 6 6 6 7 7 8 8 10 10
4 5 4 3 3 4 4 4 4 4 4 4 4 4 4 4 4 5 6 6 6 6 6 6 6 6 5 5 5 5 5 6 6 6 6 6 6 7 8 9 8 8 8
3 4 6 4 4 4 3 4 3 4 4 4 4 4 5 5 6 6 5 6 6 6 6 6 6 5 5 5 5 5 6 6 5 5 6 6 6 7 7 8 8 8 8
3 3 4 4 4 3 3 3 3 3 4 4 3 3 6 4 4 5 5 5 6 5 5 5 5 5 5 5 5 5 6 6 6 6 6 6 7 7 7 7 8 8 8
3 3 3 3 3 4 4 4 4 4 4 3 3 3 4 5 5 5 5 5 4 5 5 5 5 5 5 5 5 5 5 6 5 6 6 7 7 8 8 8 10 10 10
2 2 3 3 3 3 3 3 3 3 4 4 4 4 4 4 4 5 5 4 4 4 5 5 6 7 8 7 7 7 7 8 8 7 8 8 9 9 8 9 10 11 11
2 2 3 3 3 3 3 3 3 4 4 4 4 4 4 4 4 4 4 4 5 5 6 6 6 7 9 10 9 9 10 12 11 10 9 7 9 10 10 10 10 11 11
2 3 3 2 3 3 3 3 4 4 4 4 4 4 4 4 4 4 4 4 4 5 6 6 8 10 11 11 11 11 12 13 13 14 11 8 9 10 10 10 13 12 12
Wind_Direction
161 147 142 148 146 147 126 123 139 135 190 204 56 87 84 78 86 71 37 33 36 29 27 46 36 24 18 10 2 6 7 10 347 325 337 348 358 353 344 336 328 321 314
163 158 161 156 162 168 158 168 179 155 182 210 126 100 89 73 69 75 50 40 36 28 20 26 18 24 20 7 2 1 352 354 6 339 332 340 338 327 336 332 326 323 323
163 166 168 172 172 172 163 163 176 162 175 193 105 93 88 70 56 35 37 24 33 26 19 22 17 21 11 360 1 358 345 347 352 338 325 328 323 328 337 329 326 327 324
167 180 183 177 163 167 161 156 171 158 148 111 95 92 83 66 49 25 18 5 7 13 17 23 27 33 20 0 359 352 350 347 338 332 319 317 314 316 334 328 326 323 314
170 181 184 171 155 153 143 145 146 127 130 111 106 98 83 65 42 36 8 353 353 355 353 355 42 39 21 2 350 339 342 334 330 330 322 322 319 329 319 311 314 310 306
174 177 169 157 144 145 147 151 142 133 113 93 87 88 77 58 66 47 12 344 334 337 338 347 359 355 342 329 321 316 318 321 316 316 312 312 309 314 315 313 310 315 307
170 168 162 158 151 154 159 152 151 153 143 121 117 112 110 100 78 31 347 322 315 321 330 327 323 346 357 323 311 300 292 291 291 286 293 296 301 313 318 315 307 297 287
167 165 162 161 158 157 158 162 171 166 162 165 184 170 145 160 181 314 314 297 294 297 302 311 316 338 346 345 331 325 307 290 280 288 280 286 296 296 290 288 288 292 287
169 169 165 163 162 162 167 170 171 172 173 177 187 178 176 207 217 245 300 293 289 291 288 319 351 356 343 345 334 317 312 308 303 296 295 296 297 296 292 294 293 294 292
169 168 164 164 165 169 173 174 172 174 183 181 190 192 192 195 202 219 246 264 285 291 289 276 317 319 326 333 320 311 306 304 314 311 302 297 291 288 283 266 264 276 282
158 159 160 161 166 170 173 174 172 178 185 197 202 201 199 202 205 208 218 225 264 288 291 287 278 304 307 305 302 287 288 298 299 296 294 293 291 288 282 274 275 266 272
149 153 161 164 172 177 171 177 182 186 192 204 211 219 213 204 199 210 219 227 249 275 288 285 276 293 294 294 291 285 292 299 293 290 289 290 291 292 289 291 290 287 279
150 158 164 167 169 169 174 182 189 192 196 209 211 220 225 212 200 208 220 236 251 259 276 288 288 288 292 289 282 283 289 285 279 280 283 281 279 281 286 292 292 292 293
166 170 175 179 178 180 181 184 190 198 206 215 216 222 225 215 204 205 217 234 251 263 273 284 287 286 280 277 280 277 264 259 266 269 275 279 285 288 288 285 286 288 291
180 179 182 184 184 183 183 191 195 199 199 205 217 216 214 226 219 201 208 231 242 250 274 277 277 278 276 273 273 270 264 265 269 268 272 281 286 289 288 286 283 287 286
192 189 187 183 181 183 186 201 211 208 206 209 211 215 224 218 219 221 225 237 249 256 267 265 267 266 268 272 274 274 271 269 269 272 275 277 281 284 286 286 284 282 283
192 186 183 186 188 195 196 200 214 229 229 231 230 229 231 232 231 234 238 246 255 254 253 257 262 265 265 268 269 269 272 270 272 276 278 277 277 279 282 285 284 283 281
195 193 189 188 193 203 208 209 209 212 223 237 236 234 234 233 233 236 238 244 257 243 242 252 258 262 265 267 270 273 276 280 279 278 279 280 281 281 282 282 281 281 283
197 194 194 191 198 208 213 218 223 225 225 223 218 228 228 229 230 233 225 229 241 246 246 251 255 258 262 266 270 271 273 277 279 280 280 280 280 280 281 280 281 283 283
203 206 199 197 208 217 218 222 226 230 235 232 226 219 203 204 226 229 225 234 243 247 249 253 255 256 259 261 265 269 271 272 275 276 280 280 280 279 280 283 283 284 283
200 202 204 213 219 223 227 229 233 234 237 241 241 224 200 210 224 231 231 232 239 247 252 255 254 255 257 260 261 265 271 274 273 275 278 278 280 282 282 280 280 280 281
210 212 212 218 218 219 227 235 241 246 248 250 253 239 221 225 233 239 241 245 244 244 248 253 257 253 249 253 257 264 267 272 276 280 283 283 283 283 282 281 281 281 279
224 221 225 231 226 225 228 232 236 243 248 249 250 249 235 235 239 241 245 249 249 253 261 262 260 261 267 265 262 255 259 265 268 272 278 282 284 283 281 281 282 286 283
251 242 235 237 237 230 232 238 244 251 254 257 258 254 247 243 247 250 252 251 252 258 267 271 269 269 273 279 276 268 262 269 276 279 278 278 282 281 280 279 280 281 281
259 255 252 249 243 244 249 252 254 257 258 258 262 265 259 254 256 262 262 257 261 263 267 272 275 276 276 278 281 279 277 279 280 282 283 276 275 276 278 278 278 280 279
265 261 259 256 249 247 253 260 264 265 264 262 259 263 266 264 262 263 266 268 273 272 273 274 274 277 280 282 280 279 281 282 281 282 281 276 274 275 277 277 277 276 277
Height
1550 1550 1551 1551 1552 1553 1554 1554 1555 1555 1556 1556 1557 1557 1557 1557 1557 1557 1557 1557 1557 1557 1557 1556 1555 1555 1554 1553 1553 1552 1552 1551 1550 1549 1548 1547 1546 1544 1543 1542 1541 1540 1539
1548 1548 1549 1549 1550 1551 1552 1553 1554 1555 1555 1556 1557 1557 1557 1558 1558 1558 1558 1558 1557 1557 1557 1556 1555 1555 1554 1553 1552 1551 1551 1550 1549 1547 1546 1545 1544 1543 1541 1540 1539 1538 1537
1545 1546 1547 1548 1549 1550 1551 1552 1553 1554 1555 1556 1556 1557 1557 1557 1557 1557 1557 1557 1557 1557 1556 1555 1555 1554 1553 1552 1552 1551 1550 1549 1548 1546 1545 1544 1542 1541 1539 1538 1537 1536 1535
1543 1544 1545 1546 1547 1549 1550 1551 1552 1553 1554 1555 1555 1556 1556 1556 1557 1557 1557 1557 1557 1556 1555 1555 1554 1553 1552 1551 1550 1549 1548 1547 1546 1545 1543 1542 1540 1539 1537 1535 1533 1532 1531
1541 1542 1543 1545 1546 1547 1548 1549 1550 1551 1552 1553 1554 1555 1555 1555 1556 1556 1556 1556 1555 1555 1554 1554 1553 1552 1551 1550 1549 1548 1547 1545 1544 1542 1541 1539 1538 1536 1535 1533 1531 1529 1528
1539 1540 1541 1543 1544 1545 1547 1548 1549 1550 1551 1552 1553 1553 1554 1554 1554 1554 1554 1554 1553 1553 1553 1552 1551 1550 1549 1548 1547 1546 1545 1543 1541 1540 1539 1537 1535 1534 1532 1531 1528 1526 1523
1536 1538 1539 1541 1542 1543 1545 1546 1547 1548 1549 1550 1551 1552 1552 1552 1552 1552 1552 1552 1551 1551 1550 1550 1549 1548 1547 1545 1544 1543 1542 1541 1540 1538 1536 1534 1532 1531 1529 1527 1525 1523 1520
1534 1536 1537 1538 1540 1541 1543 1544 1545 1546 1547 1548 1549 1549 1550 1550 1550 1550 1550 1549 1549 1548 1548 1547 1546 1545 1544 1543 1541 1539 1538 1537 1536 1534 1533 1531 1529 1527 1526 1523 1521 1518 1516
1532 1533 1535 1536 1537 1539 1540 1542 1543 1544 1545 1546 1546 1547 1547 1547 1547 1547 1547 1546 1546 1545 1545 1544 1543 1542 1541 1539 1538 1536 1534 1533 1532 1530 1529 1527 1525 1523 1521 1519 1516 1514 1510
1529 1531 1532 1533 1535 1536 1538 1539 1540 1541 1542 1543 1543 1544 1544 1544 1545 1544 1544 1543 1543 1542 1542 1541 1540 1539 1537 1536 1534 1532 1529 1528 1526 1524 1523 1521 1519 1517 1516 1514 1512 1510 1506
1527 1528 1530 1531 1532 1533 1535 1536 1537 1538 1539 1540 1540 1541 1541 1541 1541 1541 1541 1540 1539 1539 1538 1537 1536 1535 1533 1532 1530 1528 1526 1524 1521 1519 1517 1515 1513 1512 1510 1509 1508 1506 1503
1524 1525 1526 1528 1529 1530 1532 1533 1534 1535 1536 1537 1537 1537 1538 1538 1538 1537 1537 1537 1536 1535 1534 1532 1531 1530 1529 1527 1525 1523 1521 1519 1516 1514 1512 1510 1508 1507 1505 1504 1502 1500 1498
1520 1522 1523 1525 1526 1527 1528 1529 1531 1532 1532 1533 1533 1533 1534 1534 1534 1534 1533 1533 1532 1531 1529 1528 1527 1525 1524 1522 1520 1518 1516 1514 1511 1509 1507 1505 1503 1501 1499 1497 1495 1493 1490
1517 1518 1520 1521 1522 1523 1525 1526 1526 1527 1528 1528 1529 1529 1529 1529 1529 1529 1528 1528 1527 1526 1524 1523 1522 1520 1518 1516 1514 1513 1511 1509 1507 1504 1502 1500 1498 1495 1493 1491 1488 1486 1483
1514 1515 1516 1517 1518 1519 1520 1521 1522 1523 1524 1524 1524 1525 1525 1524 1524 1524 1524 1523 1522 1521 1519 1517 1516 1514 1512 1510 1509 1507 1505 1504 1501 1499 1497 1494 1492 1490 1487 1485 1483 1480 1477
1510 1511 1512 1513 1514 1515 1516 1517 1518 1519 1519 1520 1520 1520 1520 1520 1520 1519 1519 1518 1516 1515 1514 1511 1510 1508 1507 1505 1503 1502 1500 1498 1496 1494 1491 1489 1486 1484 1481 1479 1476 1473 1470
1507 1508 1509 1510 1510 1511 1512 1512 1513 1514 1514 1514 1515 1515 1515 1515 1515 1514 1513 1512 1511 1510 1508 1506 1504 1503 1501 1500 1498 1496 1494 1492 1490 1488 1485 1483 1480 1477 1474 1472 1469 1466 1463
1503 1504 1505 1505 1506 1507 1507 1507 1508 1508 1508 1508 1509 1509 1509 1509 1509 1508 1508 1507 1505 1504 1502 1500 1499 1497 1496 1494 1492 1490 1488 1486 1484 1481 1479 1476 1474 1471 1468 1465 1462 1459 1456
1499 1500 1501 1501 1502 1502 1503 1503 1503 1503 1503 1502 1502 1503 1503 1502 1502 1502 1501 1500 1498 1497 1496 1494 1493 1491 1490 1488 1486 1484 1481 1479 1477 1474 1472 1469 1467 1464 1461 1458 1455 1452 1449
1494 1495 1496 1496 1497 1497 1498 1498 1498 1498 1497 1497 1497 1496 1496 1496 1495 1494 1494 1493 1492 1490 1489 1488 1486 1485 1483 1481 1479 1477 1475 1472 1470 1467 1465 1462 1460 1457 1454 1451 1448 1445 1442
1490 1490 1491 1492 1492 1492 1492 1493 1493 1493 1492 1492 1491 1491 1490 1489 1488 1487 1487 1486 1485 1483 1482 1481 1479 1478 1476 1474 1472 1470 1468 1465 1463 1460 1458 1455 1452 1449 1446 1444 1441 1438 1435
1485 1485 1486 1486 1487 1487 1487 1487 1487 1487 1486 1486 1485 1485 1484 1483 1482 1481 1480 1479 1478 1477 1476 1474 1473 1471 1470 1468 1466 1463 1461 1458 1456 1453 1450 1448 1445 1442 1439 1436 1433 1430 1427
1480 1480 1480 1481 1481 1481 1481 1481 1481 1481 1480 1480 1479 1478 1477 1476 1475 1474 1473 1472 1471 1470 1469 1468 1466 1464 1463 1461 1459 1456 1454 1451 1449 1446 1443 1440 1437 1434 1431 1428 1425 1423 1420
1475 1475 1475 1475 1475 1476 1476 1476 1475 1475 1474 1474 1473 1473 1472 1471 1469 1468 1467 1466 1464 1463 1462 1460 1459 1457 1455 1453 1451 1449 1446 1444 1442 1439 1436 1433 1429 1426 1423 1420 1418 1415 1412
1470 1470 1470 1470 1470 1470 1470 1470 1469 1469 1468 1468 1467 1467 1466 1465 1463 1462 1461 1459 1458 1456 1455 1453 1451 1449 1447 1445 1443 1441 1439 1436 1434 1431 1428 1425 1421 1418 1415 1412 1409 1407 1404
1465 1465 1465 1465 1465 1464 1464 1464 1463 1463 1462 1462 1461 1460 1459 1458 1457 1456 1454 1453 1451 1449 1447 1446 1444 1441 1439 1437 1434 1432 1430 1428 1425 1423 1420 1416 1413 1410 1407 1404 1401 1399 1396